Regional Weather Roundup
Issued by NWS Sioux Falls, SD

Home | Current Version | Previous Version | Graphics & Text | Print | Product List | Glossary Off
Versions: 1 2 3 4 5 6 7 8 9 10 11 12 13 14 15 16 17 18 19 20 21 22 23 24 25 26 27 28 29 30 31 32 33 34 35 36 37 38 39 40 41 42 43 44 45 46 47 48 49 50

000
ASUS43 KFSD 232302
RWRFSD

WEATHER ROUNDUP FOR SE SOUTH DAKOTA/SW MINNESOTA/NW IOWA
NATIONAL WEATHER SERVICE SIOUX FALLS SD
600 PM CDT FRI SEP 23 2016

NOTE: "FAIR" INDICATES FEW OR NO CLOUDS BELOW 12,000 FEET WITH NO
SIGNIFICANT WEATHER AND OR OBSTRUCTIONS TO VISIBILITY.


SDZ038>040-050-052>070-240000-
SOUTHEAST SOUTH DAKOTA

CITY           SKY/WX    TMP DP  RH WIND       PRES   REMARKS
CHAMBERLAIN    SUNNY     90  59  34 SE16G28   29.74R
HURON          SUNNY     88  61  40 SE16G25   29.77S
MADISON        FAIR      82  61  47 SE14G23   29.87S
MITCHELL       SUNNY     90  57  32 S16G24    29.79S
SIOUX FALLS    MOSUNNY   85  61  44 S16G25    29.86F
WINNER         FAIR      91  54  28 S24G35    29.72S
YANKTON        SUNNY     88  55  33 SE18G28   29.80S
$$

MNZ071-072-080-081-089-090-097-098-240000-
SOUTHWEST MINNESOTA

CITY           SKY/WX    TMP DP  RH WIND       PRES   REMARKS
FAIRMONT       CLOUDY    69  65  86 E13G18    30.01S
JACKSON        CLOUDY    70  64  83 E17G23    29.99S
LUVERNE        SUNNY     84  54  34 S16G22    29.90S
MARSHALL       CLOUDY    65  64  97 E21G26    29.97S
MONTEVIDEO     CLOUDY    64  64 100 SE18G25   30.00S
PIPESTONE      SUNNY     75  66  73 E17       29.92S
REDWOOD FALLS  PTSUNNY   68  62  81 E12G24    29.99F
TRACY          CLOUDY    67  66  96 E14G23    29.98S
WINDOM         CLOUDY    68  64  88 E17G28    29.99S
WORTHINGTON    SUNNY     76  69  79 E21G29    29.94R
$$

IAZ001>003-012>014-020>022-031-032-NEZ013-014-SDZ071-240000-
NORTHWEST IOWA

CITY           SKY/WX    TMP DP  RH WIND       PRES   REMARKS
CHEROKEE       SUNNY     85  62  45 S8        29.92S
DENISON        SUNNY     86  63  45 S9G16     29.91S
ESTHERVILLE    MOSUNNY   73  69  87 E13       29.98S
LE MARS        SUNNY     88  59  37 S10G21    29.89S
ORANGE CITY    SUNNY     88  57  35 S14       29.90F
SHELDON        SUNNY     84  63  48 SE15G24   29.90S
SIOUX CITY     SUNNY     89  60  37 S17G23    29.87S
SPENCER        SUNNY     82  70  66 E17       29.94S
STORM LAKE     SUNNY     86  63  45 S14G22    29.95S
$$

ABBREVIATIONS USED IN REMARKS
   TC - TEMPERATURE IN CELSIUS
  WCI - WIND CHILL INDEX
   HX - HEAT INDEX
  VSB - VISIBILITY





USA.gov is the U.S. government's official web portal to all federal, state and local government web resources and services.